RYR6499 GMMX-LBSF

Flight info

Callsign RYR6499
Flight time N/A
Altitude 34000
Route OBOGA UG850 FES G850 BOKPA UG850 ALM G850 BERUM N860 GONZA T100 PIDUD/N0439F360 T100 SOTAX DCT INPEK DCT ODAKA DCT ELSAG/N0341F180 M603 ALG L5 OST/N0444F360 DCT MOPUV DCT EKMIL DCT ERPOG DCT KATTI/N0446F370 DCT RILIM DCT INTIT DCT BUNEX DCT BAJUN DCT AZBUX/N0333F190 L614 NISVA
Aircraft B738/M-SDE2E3FGHIRWXY/LB1

Departure

Time 2026-05-01 08:53
Airport Marrakesh Menara Airport (GMMX)

Arrival

Time N/A
Airport Sofia Airport (LBSF)
Time Latitude Longitude Altitude Speed Heading
2026-05-01 08:19 31.60308 -8.02117 1552 ft 0 kts 187°
2026-05-01 08:38 31.60317 -8.02116 1552 ft 4 kts 188°
2026-05-01 08:38 31.60344 -8.02110 1552 ft 4 kts 193°
2026-05-01 08:38 31.60369 -8.02102 1552 ft 4 kts 201°
2026-05-01 08:38 31.60391 -8.02090 1552 ft 1 kts 209°
2026-05-01 08:39 31.60395 -8.02088 1552 ft 0 kts 209°
2026-05-01 08:43 31.60394 -8.02088 1552 ft 1 kts 210°
2026-05-01 08:43 31.60386 -8.02101 1552 ft 5 kts 238°
2026-05-01 08:44 31.60389 -8.02176 1551 ft 12 kts 276°
2026-05-01 08:44 31.60396 -8.02276 1550 ft 12 kts 274°
2026-05-01 08:44 31.60406 -8.02375 1549 ft 12 kts 277°
2026-05-01 08:44 31.60415 -8.02471 1541 ft 12 kts 275°
2026-05-01 08:45 31.60423 -8.02564 1547 ft 11 kts 277°
2026-05-01 08:45 31.60432 -8.02655 1546 ft 11 kts 275°
2026-05-01 08:45 31.60439 -8.02744 1545 ft 12 kts 275°
2026-05-01 08:45 31.60453 -8.02894 1539 ft 22 kts 276°
2026-05-01 08:46 31.60468 -8.03067 1541 ft 21 kts 275°
2026-05-01 08:46 31.60483 -8.03236 1532 ft 20 kts 274°
2026-05-01 08:46 31.60496 -8.03387 1537 ft 14 kts 276°
2026-05-01 08:46 31.60505 -8.03495 1534 ft 13 kts 275°
2026-05-01 08:47 31.60514 -8.03599 1525 ft 13 kts 275°
2026-05-01 08:47 31.60523 -8.03701 1532 ft 12 kts 276°
2026-05-01 08:47 31.60532 -8.03800 1531 ft 12 kts 276°
2026-05-01 08:47 31.60541 -8.03897 1530 ft 12 kts 275°
2026-05-01 08:48 31.60551 -8.04010 1529 ft 16 kts 276°
2026-05-01 08:48 31.60562 -8.04139 1527 ft 16 kts 276°
2026-05-01 08:48 31.60573 -8.04263 1526 ft 15 kts 276°
2026-05-01 08:48 31.60583 -8.04380 1525 ft 14 kts 276°
2026-05-01 08:49 31.60594 -8.04495 1523 ft 14 kts 276°
2026-05-01 08:49 31.60603 -8.04603 1522 ft 14 kts 276°
2026-05-01 08:49 31.60614 -8.04737 1519 ft 18 kts 276°
2026-05-01 08:49 31.60628 -8.04885 1519 ft 18 kts 276°
2026-05-01 08:50 31.60641 -8.05028 1517 ft 17 kts 276°
2026-05-01 08:50 31.60652 -8.05166 1515 ft 17 kts 276°
2026-05-01 08:50 31.60720 -8.05250 1514 ft 16 kts
2026-05-01 08:50 31.60818 -8.05200 1513 ft 15 kts 47°
2026-05-01 08:51 31.60818 -8.05082 1515 ft 8 kts 96°
2026-05-01 08:51 31.60818 -8.05080 1515 ft 0 kts 96°
2026-05-01 08:51 31.60818 -8.05079 1515 ft 3 kts 96°
2026-05-01 08:51 31.60817 -8.05065 1516 ft 1 kts 96°
2026-05-01 08:52 31.60794 -8.04805 1518 ft 72 kts 96°
2026-05-01 08:52 31.60714 -8.03917 1524 ft 144 kts 96°
2026-05-01 08:52 31.60636 -8.03033 1542 ft 184 kts 96°
2026-05-01 08:52 31.60476 -8.01401 1966 ft 213 kts 100°
2026-05-01 08:53 31.60094 -7.99667 2659 ft 226 kts 111°
2026-05-01 08:53 31.59462 -7.97923 3413 ft 238 kts 114°
2026-05-01 08:53 31.58778 -7.96100 4200 ft 250 kts 113°
2026-05-01 08:53 31.58069 -7.94165 5002 ft 266 kts 113°
2026-05-01 08:54 31.57331 -7.92120 5886 ft 278 kts 113°
2026-05-01 08:54 31.56707 -7.89962 6299 ft 280 kts 96°
2026-05-01 08:54 31.56963 -7.87747 6413 ft 276 kts 68°
2026-05-01 08:54 31.58025 -7.85878 6555 ft 279 kts 43°
2026-05-01 08:55 31.59680 -7.84695 6690 ft 283 kts 18°
2026-05-01 08:55 31.61629 -7.84434 6825 ft 283 kts 356°
2026-05-01 08:55 31.63591 -7.84642 6973 ft 285 kts 353°
2026-05-01 08:55 31.65570 -7.84865 7108 ft 287 kts 355°
2026-05-01 08:56 31.67636 -7.85030 7274 ft 310 kts 356°
2026-05-01 08:56 31.69882 -7.85197 7424 ft 336 kts 356°
2026-05-01 08:56 31.72289 -7.85388 7573 ft 358 kts 355°
2026-05-01 08:56 31.74841 -7.85607 7727 ft 375 kts 355°
2026-05-01 08:57 31.77403 -7.85834 7845 ft 361 kts 355°
2026-05-01 08:57 31.79856 -7.85860 7963 ft 348 kts 12°
2026-05-01 08:57 31.81880 -7.84498 8266 ft 343 kts 48°
2026-05-01 08:57 31.83336 -7.82257 8691 ft 350 kts 55°
2026-05-01 08:58 31.84771 -7.79906 9012 ft 360 kts 52°
2026-05-01 08:58 31.86418 -7.77616 9377 ft 373 kts 47°
2026-05-01 08:58 31.88219 -7.75369 9771 ft 382 kts 46°
2026-05-01 08:58 31.90078 -7.73096 10156 ft 386 kts 46°
2026-05-01 08:59 31.91924 -7.70812 10501 ft 386 kts 46°
2026-05-01 08:59 31.93763 -7.68494 10894 ft 386 kts 47°
2026-05-01 08:59 31.95572 -7.66178 11508 ft 384 kts 47°
2026-05-01 08:59 31.97376 -7.63846 12115 ft 387 kts 47°
2026-05-01 09:00 31.99188 -7.61495 12744 ft 388 kts 46°
2026-05-01 09:00 32.01004 -7.59133 13376 ft 390 kts 46°
2026-05-01 09:00 32.02830 -7.56758 14002 ft 391 kts 46°
2026-05-01 09:00 32.04661 -7.54378 14581 ft 392 kts 46°
2026-05-01 09:01 32.06493 -7.51994 15171 ft 393 kts 45°
2026-05-01 09:01 32.08312 -7.49626 15757 ft 383 kts 45°
2026-05-01 09:01 32.10076 -7.47324 16399 ft 375 kts 45°
2026-05-01 09:01 32.11821 -7.45044 17072 ft 374 kts 45°
2026-05-01 09:02 32.13564 -7.42767 17751 ft 374 kts 44°
2026-05-01 09:02 32.15305 -7.40491 18449 ft 373 kts 44°
2026-05-01 09:02 32.17042 -7.38217 19056 ft 372 kts 44°
2026-05-01 09:02 32.18772 -7.35952 19677 ft 371 kts 44°
2026-05-01 09:03 32.20492 -7.33697 20305 ft 369 kts 44°
2026-05-01 09:03 32.22205 -7.31451 20954 ft 367 kts 44°
2026-05-01 09:03 32.23906 -7.29220 21604 ft 364 kts 44°
2026-05-01 09:03 32.25590 -7.27009 22282 ft 360 kts 44°
2026-05-01 09:04 32.27269 -7.24806 22765 ft 363 kts 44°
2026-05-01 09:04 32.28977 -7.22569 23121 ft 369 kts 44°
2026-05-01 09:04 32.30703 -7.20306 23549 ft 373 kts 44°
2026-05-01 09:04 32.32436 -7.17986 23870 ft 379 kts 45°
2026-05-01 09:05 32.34157 -7.15600 24224 ft 383 kts 45°
2026-05-01 09:05 32.35920 -7.13219 24529 ft 388 kts 44°
2026-05-01 09:05 32.37767 -7.10822 24556 ft 403 kts 43°
2026-05-01 09:05 32.39696 -7.08349 24661 ft 414 kts 43°
2026-05-01 09:06 32.41675 -7.05803 24727 ft 426 kts 44°
2026-05-01 09:06 32.43693 -7.03183 24957 ft 432 kts 44°
2026-05-01 09:06 32.45695 -7.00557 25497 ft 429 kts 44°
2026-05-01 09:06 32.47693 -6.97922 25893 ft 430 kts 44°
2026-05-01 09:07 32.49681 -6.95292 26372 ft 429 kts 44°
2026-05-01 09:07 32.51643 -6.92693 26816 ft 428 kts 44°
2026-05-01 09:07 32.53621 -6.90071 27287 ft 427 kts 44°
2026-05-01 09:07 32.55595 -6.87453 27768 ft 425 kts 44°
2026-05-01 09:08 32.57560 -6.84846 28240 ft 423 kts 44°
2026-05-01 09:08 32.59516 -6.82248 28728 ft 421 kts 44°
2026-05-01 09:08 32.61458 -6.79669 29230 ft 418 kts 43°
2026-05-01 09:08 32.63392 -6.77098 29725 ft 416 kts 43°
2026-05-01 09:09 32.65307 -6.74550 30227 ft 412 kts 43°
2026-05-01 09:09 32.67208 -6.72019 30661 ft 409 kts 43°
2026-05-01 09:09 32.69089 -6.69514 31099 ft 405 kts 43°
2026-05-01 09:09 32.70949 -6.67035 31537 ft 400 kts 43°
2026-05-01 09:10 32.72788 -6.64581 31981 ft 395 kts 43°
2026-05-01 09:10 32.74600 -6.62162 32433 ft 389 kts 42°
2026-05-01 09:10 32.76387 -6.59775 32758 ft 388 kts 42°
2026-05-01 09:10 32.78208 -6.57350 32690 ft 398 kts 42°
2026-05-01 09:11 32.80054 -6.54888 32804 ft 399 kts 42°
2026-05-01 09:11 32.81900 -6.52419 32860 ft 401 kts 42°
2026-05-01 09:11 32.85630 -6.47420 32883 ft 406 kts 42°
2026-05-01 09:12 32.89386 -6.42378 33094 ft 404 kts 42°
2026-05-01 09:12 32.91226 -6.39903 33416 ft 397 kts 42°
2026-05-01 09:12 32.93059 -6.37444 33549 ft 397 kts 42°
2026-05-01 09:13 32.96794 -6.32464 33590 ft 410 kts 42°
2026-05-01 09:13 33.00637 -6.27335 33721 ft 420 kts 42°
2026-05-01 09:14 33.04573 -6.22060 33850 ft 431 kts 42°
2026-05-01 09:14 33.08591 -6.16663 34094 ft 438 kts 42°
2026-05-01 09:15 33.12682 -6.11161 34130 ft 449 kts 42°
2026-05-01 09:15 33.16863 -6.05530 34148 ft 458 kts 42°
2026-05-01 09:16 33.21137 -5.99764 34128 ft 469 kts 42°
2026-05-01 09:17 33.27673 -5.90925 34163 ft 482 kts 42°
2026-05-01 09:17 33.34411 -5.81792 34164 ft 494 kts 43°
2026-05-01 09:18 33.41262 -5.72441 34154 ft 500 kts 43°
2026-05-01 09:19 33.48139 -5.63016 34156 ft 499 kts 43°
2026-05-01 09:20 33.54916 -5.53706 34160 ft 492 kts 42°
2026-05-01 09:21 33.63904 -5.41340 34166 ft 491 kts 42°
2026-05-01 09:21 33.70631 -5.32052 34166 ft 492 kts 42°
2026-05-01 09:22 33.79601 -5.19627 34194 ft 493 kts 42°
2026-05-01 09:23 33.86175 -5.10492 34190 ft 494 kts 42°
2026-05-01 09:24 33.92958 -5.01219 34163 ft 491 kts 36°
2026-05-01 09:24 33.98314 -4.96443 34277 ft 474 kts 24°
2026-05-01 09:25 34.03785 -4.91875 34204 ft 482 kts 30°
2026-05-01 09:26 34.11634 -4.84213 34193 ft 484 kts 30°
2026-05-01 09:26 34.19602 -4.76798 34181 ft 481 kts 29°
2026-05-01 09:27 34.27591 -4.69496 34172 ft 480 kts 29°
2026-05-01 09:28 34.32907 -4.64604 34167 ft 479 kts 29°
2026-05-01 09:28 34.38199 -4.59726 34176 ft 478 kts 29°
2026-05-01 09:29 34.46107 -4.52384 34183 ft 477 kts 29°
2026-05-01 09:30 34.54000 -4.45006 34169 ft 478 kts 29°
2026-05-01 09:30 34.61895 -4.37614 34179 ft 478 kts 29°
2026-05-01 09:31 34.67157 -4.32679 34164 ft 478 kts 29°
2026-05-01 09:32 34.75027 -4.25282 34182 ft 477 kts 29°
2026-05-01 09:32 34.82883 -4.17879 34186 ft 476 kts 29°
2026-05-01 09:33 34.88115 -4.12940 34168 ft 476 kts 29°
2026-05-01 09:34 34.94782 -4.06635 34150 ft 477 kts 30°
2026-05-01 09:34 35.02638 -3.99186 34179 ft 477 kts 29°
2026-05-01 09:35 35.10484 -3.91727 34148 ft 476 kts 29°
2026-05-01 09:36 35.15695 -3.86763 34150 ft 474 kts 29°
2026-05-01 09:36 35.20887 -3.81831 34162 ft 472 kts 29°
2026-05-01 09:37 35.26106 -3.77002 34171 ft 469 kts 28°
2026-05-01 09:37 35.33914 -3.69806 34174 ft 467 kts 28°
2026-05-01 09:38 35.41681 -3.62594 34165 ft 466 kts 29°
2026-05-01 09:39 35.49423 -3.55380 34177 ft 466 kts 29°
2026-05-01 09:39 35.54547 -3.50597 34172 ft 466 kts 29°
2026-05-01 09:40 35.61449 -3.44141 34174 ft 467 kts 29°
2026-05-01 09:41 35.67455 -3.38511 34186 ft 467 kts 30°
2026-05-01 09:41 35.74373 -3.32011 34186 ft 468 kts 30°
2026-05-01 09:42 35.79547 -3.27141 34185 ft 468 kts 30°
2026-05-01 09:43 35.89871 -3.17318 34187 ft 469 kts 31°
2026-05-01 09:43 35.95010 -3.12358 34188 ft 469 kts 31°
2026-05-01 09:44 36.02718 -3.04919 34188 ft 468 kts 31°
2026-05-01 09:45 36.07815 -2.99995 34187 ft 468 kts 32°
2026-05-01 09:45 36.15497 -2.92557 34192 ft 467 kts 32°
2026-05-01 09:46 36.19916 -2.86586 34250 ft 481 kts 56°
2026-05-01 09:46 36.22544 -2.78914 34215 ft 490 kts 72°
2026-05-01 09:47 36.23941 -2.70629 34196 ft 493 kts 76°
2026-05-01 09:47 36.25365 -2.62337 34183 ft 491 kts 73°
2026-05-01 09:48 36.27119 -2.54168 34182 ft 491 kts 72°
2026-05-01 09:48 36.28847 -2.45991 34189 ft 490 kts 73°
2026-05-01 09:49 36.30486 -2.37787 34201 ft 490 kts 74°
2026-05-01 09:49 36.32092 -2.29588 34178 ft 489 kts 74°
2026-05-01 09:50 36.33696 -2.21393 34193 ft 488 kts 74°
2026-05-01 09:50 36.35295 -2.13226 34186 ft 487 kts 74°
2026-05-01 09:51 36.36898 -2.05064 34187 ft 486 kts 73°
2026-05-01 09:51 36.38942 -1.97107 34194 ft 483 kts 68°
2026-05-01 09:52 36.41260 -1.89293 34181 ft 482 kts 68°
2026-05-01 09:52 36.43529 -1.81469 34198 ft 481 kts 69°
2026-05-01 09:53 36.45708 -1.73689 34183 ft 480 kts 69°
2026-05-01 09:53 36.47877 -1.65840 34193 ft 479 kts 70°
2026-05-01 09:54 36.50053 -1.57957 34201 ft 479 kts 70°
2026-05-01 09:54 36.52195 -1.50190 34191 ft 478 kts 70°
2026-05-01 09:55 36.54345 -1.42374 34204 ft 477 kts 70°
2026-05-01 09:55 36.56487 -1.34562 34197 ft 477 kts 70°
2026-05-01 09:56 36.58622 -1.26758 34195 ft 477 kts 70°
2026-05-01 09:56 36.60969 -1.19066 34139 ft 475 kts 59°
2026-05-01 09:57 36.62667 -1.15558 34277 ft 470 kts 55°
2026-05-01 09:57 36.64465 -1.12162 34242 ft 471 kts 55°
2026-05-01 09:57 36.67799 -1.05108 34220 ft 473 kts 60°
2026-05-01 09:58 36.70798 -0.97799 34207 ft 474 kts 61°
2026-05-01 09:58 36.73865 -0.90530 34195 ft 474 kts 60°
2026-05-01 09:59 36.77023 -0.83319 34210 ft 474 kts 59°
2026-05-01 09:59 36.80210 -0.76118 34193 ft 474 kts 59°
2026-05-01 10:00 36.83302 -0.69112 34205 ft 474 kts 59°
2026-05-01 10:00 36.86444 -0.61962 34201 ft 475 kts 59°
2026-05-01 10:01 36.89601 -0.54752 34198 ft 475 kts 59°
2026-05-01 10:01 36.92553 -0.47999 34203 ft 475 kts 59°
2026-05-01 10:02 36.95711 -0.40757 34197 ft 475 kts 59°
2026-05-01 10:02 36.98868 -0.33503 34204 ft 474 kts 59°
2026-05-01 10:03 37.02018 -0.26249 34203 ft 474 kts 59°
2026-05-01 10:03 37.05162 -0.18993 34195 ft 474 kts 59°
2026-05-01 10:04 37.08301 -0.11731 34205 ft 474 kts 59°
2026-05-01 10:04 37.11430 -0.04479 34195 ft 473 kts 59°
2026-05-01 10:05 37.14543 0.02771 34200 ft 472 kts 59°
2026-05-01 10:05 37.17645 0.10012 34200 ft 471 kts 59°
2026-05-01 10:06 37.20592 0.16907 34192 ft 470 kts 59°
2026-05-01 10:06 37.23709 0.24214 34200 ft 470 kts 59°
2026-05-01 10:07 37.26789 0.31451 34196 ft 470 kts 60°
2026-05-01 10:07 37.29868 0.38702 34197 ft 471 kts 60°
2026-05-01 10:08 37.34485 0.49605 34194 ft 472 kts 61°
2026-05-01 10:09 37.37543 0.56848 34194 ft 473 kts 61°
2026-05-01 10:09 37.40621 0.64156 34193 ft 473 kts 62°
2026-05-01 10:10 37.43696 0.71476 34188 ft 473 kts 62°
2026-05-01 10:10 37.48304 0.82467 34195 ft 473 kts 63°
2026-05-01 10:11 37.51370 0.89794 34187 ft 473 kts 63°
2026-05-01 10:11 37.54427 0.97117 34191 ft 472 kts 63°
2026-05-01 10:12 37.56961 1.03204 34188 ft 471 kts 64°
2026-05-01 10:13 37.62031 1.15414 34190 ft 470 kts 64°
2026-05-01 10:13 37.65057 1.22725 34186 ft 470 kts 64°
2026-05-01 10:14 37.69590 1.33708 34190 ft 471 kts 64°
2026-05-01 10:14 37.72610 1.41047 34184 ft 471 kts 64°
2026-05-01 10:15 37.75634 1.48408 34187 ft 472 kts 64°
2026-05-01 10:15 37.78663 1.55791 34187 ft 474 kts 64°
2026-05-01 10:16 37.81696 1.63197 34186 ft 475 kts 64°
2026-05-01 10:17 37.86256 1.74366 34185 ft 478 kts 64°
2026-05-01 10:17 37.90805 1.85551 34186 ft 479 kts 64°
2026-05-01 10:18 37.95376 1.96832 34178 ft 480 kts 64°
2026-05-01 10:19 37.98418 2.04360 34180 ft 480 kts 64°
2026-05-01 10:19 38.01450 2.11882 34171 ft 479 kts 64°
2026-05-01 10:20 38.05978 2.23150 34177 ft 477 kts 64°
2026-05-01 10:20 38.08981 2.30647 34170 ft 476 kts 63°
2026-05-01 10:21 38.13463 2.41867 34175 ft 474 kts 63°
2026-05-01 10:22 38.18189 2.52890 34144 ft 474 kts 55°
2026-05-01 10:23 38.24614 2.62364 34196 ft 472 kts 45°
2026-05-01 10:23 38.31295 2.71593 34184 ft 473 kts 48°
2026-05-01 10:24 38.39830 2.84402 34173 ft 475 kts 49°
2026-05-01 10:25 38.48413 2.97232 34176 ft 476 kts 49°
2026-05-01 10:26 38.52674 3.03625 34173 ft 476 kts 49°
2026-05-01 10:27 38.61286 3.16584 34176 ft 477 kts 49°
2026-05-01 10:28 38.67699 3.26259 34173 ft 477 kts 48°
2026-05-01 10:28 38.74127 3.35988 34172 ft 477 kts 48°
2026-05-01 10:29 38.80552 3.45742 34176 ft 477 kts 48°
2026-05-01 10:30 38.88379 3.57667 34178 ft 477 kts 48°
2026-05-01 10:31 38.96911 3.70717 34178 ft 477 kts 48°
2026-05-01 10:32 39.03329 3.80568 34184 ft 477 kts 48°
2026-05-01 10:33 39.11807 3.93631 34194 ft 477 kts 48°
2026-05-01 10:34 39.18184 4.03491 34188 ft 478 kts 48°
2026-05-01 10:34 39.22436 4.10082 34195 ft 478 kts 48°
2026-05-01 10:35 39.28805 4.20003 34197 ft 479 kts 48°
2026-05-01 10:35 39.33046 4.26631 34200 ft 479 kts 48°
2026-05-01 10:36 39.39413 4.36606 34201 ft 480 kts 48°
2026-05-01 10:37 39.43661 4.43277 34203 ft 480 kts 48°
2026-05-01 10:37 39.50026 4.53302 34203 ft 481 kts 48°
2026-05-01 10:38 39.54272 4.60007 34210 ft 481 kts 48°
2026-05-01 10:38 39.58518 4.66723 34206 ft 482 kts 47°
2026-05-01 10:39 39.62814 4.73399 34216 ft 482 kts 47°
2026-05-01 10:39 39.67148 4.80039 34218 ft 482 kts 46°
2026-05-01 10:40 39.71478 4.86697 34213 ft 483 kts 47°